This demonstration page uses our WeatherBlox Daily Observations layout. Learn more.

Left ArrowRight Arrow

38.80484, -77.04692

Hourly Observations for August 4, 2021

Temp ( °F °C ) Dew Point ( °F °C ) Humidity (%) Winds ( mph kmh ) Pressure ( in mb ) Visibility ( mi km ) Precip ( " mm )
12:52 am 00:52 Mostly Cloudy 72 22.2 61 16.1 68 68 E 3 6 30.09 1019 10 16 N/A
1:52 am 01:52 Mostly Cloudy 71 21.7 62 16.7 73 73 ENE 6 9 30.09 1019 10 16 N/A
2:52 am 02:52 Mostly Cloudy 69 20.6 62 16.7 78 78 N 5 7 30.09 1019 10 16 N/A
3:52 am 03:52 Mostly Cloudy 69 20.6 63 17.2 81 81 NE 6 9 30.09 1019 10 16 N/A
4:52 am 04:52 Mostly Cloudy 69 20.6 62 16.7 78 78 NNE 6 9 30.08 1019 10 16 N/A
5:52 am 05:52 Cloudy 69 20.6 63 17.2 81 81 ENE 9 15 30.08 1019 10 16 N/A
6:52 am 06:52 Cloudy 69 20.6 63 17.2 81 81 ENE 8 13 30.09 1019 10 16 N/A
7:52 am 07:52 Cloudy 70 21.1 63 17.2 79 79 NNE 9 15 30.10 1019 10 16 N/A
8:52 am 08:52 Cloudy 71 21.7 63 17.2 76 76 NE 9 15 30.11 1020 10 16 N/A
9:52 am 09:52 Mostly Cloudy 72 22.2 63 17.2 73 73 NE 13 20 30.11 1020 10 16 N/A
10:52 am 10:52 Mostly Cloudy 74 23.3 62 16.7 67 67 NNE 12 19 30.11 1020 10 16 N/A
11:52 am 11:52 Mostly Cloudy 77 25 58 14.4 52 52 NE 10 17 30.11 1020 10 16 N/A
12:52 pm 12:52 Mostly Cloudy 80 26.7 57 13.9 45 45 NE 13 20 30.11 1020 10 16 N/A
1:52 pm 13:52 Partly Cloudy 81 27.2 55 12.8 41 41 NE 13 20 30.10 1019 10 16 N/A
2:52 pm 14:52 Mostly Sunny 82 27.8 55 12.8 40 40 NE 13 20 30.09 1019 10 16 N/A
3:52 pm 15:52 Partly Cloudy 82 27.8 56 13.3 41 41 ENE 14 22 30.08 1019 10 16 N/A
4:52 pm 16:52 Mostly Sunny 82 27.8 55 12.8 40 40 NNE 13 20 30.08 1019 10 16 N/A
5:52 pm 17:52 Partly Cloudy 80 26.7 57 13.9 45 45 E 8 13 30.08 1019 10 16 N/A
6:52 pm 18:52 Mostly Sunny 79 26.1 56 13.3 45 45 ESE 10 17 30.08 1019 10 16 N/A
7:52 pm 19:52 Mostly Sunny 77 25 56 13.3 48 48 E 8 13 30.08 1019 10 16 N/A
8:52 pm 20:52 Mostly Clear 75 23.9 57 13.9 54 54 E 5 7 30.09 1019 10 16 N/A
9:52 pm 21:52 Mostly Clear 75 23.9 57 13.9 54 54 ESE 3 6 30.11 1020 10 16 N/A
10:52 pm 22:52 Clear 74 23.3 58 14.4 57 57 N N/A 30.11 1020 10 16 N/A
11:52 pm 23:52 Mostly Cloudy 72 22.2 59 15 64 64 N N/A 30.11 1020 10 16 N/A

Powered by AerisWeather